Regional Weather Roundup
Issued by NWS

Home | Current Version | Previous Version | Text Only | Print | Product List | Glossary On
Versions: 1 2 3 4 5 6 7 8 9 10 11 12 13 14 15 16 17 18 19 20 21 22 23 24 25 26 27 28 29 30 31 32 33 34 35 36 37 38 39 40 41 42 43 44 45 46 47 48 49 50
000
ASUS43 KOAX 270202
RWRNE

WEATHER ROUNDUP FOR NEBRASKA
NATIONAL WEATHER SERVICE OMAHA NE
800 PM CST MON JAN 26 2015

NOTES: SATELLITE DATA IS BEING USED TO AUGMENT CLOUD COVER ABOVE
       12000 FEET.
       "FAIR" INDICATES FEW OR NO CLOUDS BELOW 12,000 FEET WITH NO
       SIGNIFICANT WEATHER AND/OR OBSTRUCTIONS TO VISIBILITY.

  * THESE STATIONS DO NOT REPORT WEATHER SUCH AS RAIN...SNOW OR FOG.

NEZ001>004-019>022-054>056-270300-
NEBRASKA PANHANDLE

CITY           SKY/WX    TMP DP  RH WIND       PRES   REMARKS
SCOTTSBLUFF    CLEAR     41  31  67 NW6       30.11S
ALLIANCE       CLEAR     34  30  85 W10       30.09R WCI  26
CHADRON        CLEAR     39  31  72 SW6       30.05S WCI  35
SIDNEY         CLEAR     39  28  64 SW13      30.14S WCI  31
$$

NEZ057>060-069>072-079>082-270300-
SOUTHWEST NEBRASKA

CITY           SKY/WX    TMP DP  RH WIND       PRES   REMARKS
NORTH PLATTE   CLEAR     36  26  67 N3        30.07S
IMPERIAL       CLEAR     48  29  47 W7        30.11R
MCCOOK         CLEAR     46  29  51 W6        30.08R
$$

NEZ005>010-023>029-035>040-094-270300-
NORTH CENTRAL NEBRASKA

CITY           SKY/WX    TMP DP  RH WIND       PRES   REMARKS
VALENTINE      CLEAR     41  31  67 S5        30.02S
BROKEN BOW     CLEAR     39  29  67 W6        30.04R WCI  35
ORD            CLEAR     34  27  75 SW3       30.03R
$$

NEZ041-046>049-061>064-073>077-083>087-270300-
SOUTH CENTRAL NEBRASKA

CITY           SKY/WX    TMP DP  RH WIND       PRES   REMARKS
GRAND ISLAND   CLEAR     39  30  70 W5        30.04S
HASTINGS       CLEAR     38  26  62 W5        30.04R WCI  34
KEARNEY *      CLEAR     43  27  52 W6        30.05S
$$

NEZ011>018-030>034-042>045-270300-
NORTHEAST NEBRASKA

CITY           SKY/WX    TMP DP  RH WIND       PRES   REMARKS
NORFOLK        CLEAR     43  32  65 NW5       30.01S
COLUMBUS *     CLEAR     36  23  60 CALM      30.04R
TEKAMAH        PTCLDY    40  32  73 NW10      30.00S WCI  33
$$

NEZ050>053-065>068-078-088>093-270300-
SOUTHEAST NEBRASKA

CITY           SKY/WX    TMP DP  RH WIND       PRES   REMARKS
LINCOLN        CLEAR     42  29  59 NW6       30.04R
OMAHA EPPLEY   PTCLDY    44  34  67 NW8       29.99S
FALLS CITY     CLEAR     42  30  62 W9        30.00R
$$

NEZ044-045-051>053-067-270300-
OMAHA AREA

CITY           SKY/WX    TMP DP  RH WIND       PRES   REMARKS
OMAHA EPPLEY   PTCLDY    44  34  67 NW8       29.99S
OFFUTT AFB     PTCLDY    42  33  70 NW8       29.99S
$$



USA.gov is the U.S. government's official web portal to all federal, state and local government web resources and services.